GW2402 Weather Reports


Display with metric or nautical units.
time (UTC)temp
F
wind
direction
speed
MPH
gust
MPH
rain 1hr
in
rain 24hr
in
rain mn
in
humidity
%
barometer
mb
20240619191546 78 230 0.0 3.0 0.00 0.00 0.00 88 1015.5
20240619190048 78 0 0.0 2.0 0.00 0.00 0.00 87 1015.7
20240619184547 78 244 0.0 1.0 0.00 0.00 0.00 86 1015.6
20240619183046 79 98 0.0 2.0 0.00 0.00 0.00 85 1015.4
20240619181543 79 0 0.0 1.0 0.00 0.00 0.00 85 1015.4
20240619180045 80 248 1.0 2.0 0.00 0.00 0.00 83 1015.4
20240619174552 80 0 0.0 1.0 0.00 0.00 0.00 82 1015.5
20240619173049 80 162 0.0 2.0 0.00 0.00 0.00 80 1015.7
20240619171552 81 214 0.0 2.0 0.00 0.00 0.00 79 1015.6
20240619170055 81 94 0.0 1.0 0.00 0.00 0.00 82 1015.4
20240619164538 80 0 0.0 2.0 0.00 0.00 0.00 81 1015.5
20240619163040 81 0 0.0 3.0 0.00 0.00 0.00 79 1015.1
20240619161546 80 0 0.0 3.0 0.00 0.00 0.00 80 1014.8
20240619160048 80 0 0.0 2.0 0.00 0.00 0.00 80 1015.0
20240619154538 80 0 0.0 1.0 0.00 0.00 0.00 80 1014.7
20240619153039 79 87 0.0 2.0 0.00 0.00 0.00 80 1014.8
20240619151608 79 0 0.0 1.0 0.00 0.00 0.00 81 1014.6
20240619150052 79 93 0.0 2.0 0.00 0.00 0.00 81 1014.6
20240619144540 78 102 0.0 1.0 0.00 0.00 0.00 82 1014.7
20240619143038 77 126 0.0 2.0 0.00 0.00 0.00 83 1014.5
20240619141543 77 0 0.0 2.0 0.00 0.00 0.00 83 1014.6
20240619140049 77 115 0.0 1.0 0.00 0.00 0.00 83 1014.5
20240619134601 77 94 0.0 1.0 0.00 0.00 0.00 84 1014.3
20240619133045 76 0 0.0 0.0 0.00 0.00 0.00 84 1014.3
20240619131543 76 0 0.0 2.0 0.00 0.00 0.00 84 1014.1
20240619130039 76 0 0.0 1.0 0.00 0.00 0.00 84 1013.9
20240619124541 76 0 0.0 0.0 0.00 0.00 0.00 84 1013.6
20240619123113 76 0 0.0 2.0 0.00 0.00 0.00 84 1013.6
20240619121547 76 93 0.0 1.0 0.00 0.00 0.00 84 1013.4
20240619120041 76 0 0.0 0.0 0.00 0.00 0.00 84 1013.3
20240619114539 76 0 0.0 0.0 0.00 0.00 0.00 84 1013.2
20240619113053 76 0 0.0 1.0 0.00 0.00 0.00 83 1013.1
20240619111548 76 0 0.0 1.0 0.00 0.00 0.00 84 1012.8
20240619110041 76 0 0.0 1.0 0.00 0.00 0.00 84 1012.7
20240619104547 76 0 0.0 1.0 0.00 0.00 0.00 82 1012.6
20240619103100 76 0 0.0 1.0 0.00 0.00 0.00 82 1012.3
20240619101550 76 0 0.0 1.0 0.00 0.00 0.00 84 1012.4
20240619100042 76 0 0.0 1.0 0.00 0.00 0.00 84 1012.1
20240619094540 76 0 0.0 1.0 0.00 0.00 0.00 81 1011.9
20240619093043 76 0 0.0 1.0 0.00 0.00 0.00 80 1011.9
20240619091541 76 0 0.0 0.0 0.00 0.00 0.00 80 1011.7
20240619090042 76 126 0.0 0.0 0.00 0.00 0.00 80 1011.7
20240619084538 76 0 0.0 0.0 0.00 0.00 0.00 80 1011.8
20240619083039 76 0 0.0 0.0 0.00 0.00 0.00 79 1011.7
20240619081549 76 0 0.0 0.0 0.00 0.00 0.00 79 1011.9
20240619080103 76 0 0.0 0.0 0.00 0.00 0.00 79 1011.9
20240619074538 76 0 0.0 0.0 0.00 0.00 0.00 79 1012.2
20240619073037 76 0 0.0 1.0 0.00 0.00 0.00 79 1012.1
20240619071536 77 0 0.0 1.0 0.00 0.00 0.00 80 1012.2
20240619070045 77 0 0.0 1.0 0.00 0.00 0.00 80 1012.5
20240619064542 77 0 0.0 0.0 0.00 0.00 0.00 79 1012.7
20240619063038 77 0 0.0 0.0 0.00 0.00 0.00 79 1012.5
20240619061534 77 241 0.0 0.0 0.00 0.00 0.00 81 1012.5
20240619060053 78 0 0.0 0.0 0.00 0.00 0.00 80 1012.6
20240619054540 78 0 0.0 0.0 0.00 0.00 0.00 79 1012.7
20240619053038 78 0 0.0 0.0 0.00 0.00 0.00 79 1012.7
20240619051539 79 0 0.0 0.0 0.00 0.00 0.00 78 1012.5
20240619050038 79 0 0.0 1.0 0.00 0.00 0.00 78 1012.7
20240619044542 80 0 0.0 1.0 0.00 0.00 0.00 76 1012.7
20240619043115 80 0 0.0 1.0 0.00 0.00 0.00 75 1012.5
20240619041547 80 0 0.0 2.0 0.00 0.00 0.00 74 1012.4
20240619040040 81 241 0.0 1.0 0.00 0.00 0.00 73 1012.3
20240619034542 81 75 0.0 1.0 0.00 0.00 0.00 72 1012.1
20240619033038 81 0 0.0 0.0 0.00 0.00 0.00 71 1012.0
20240619031545 82 0 0.0 2.0 0.00 0.00 0.00 70 1011.9
20240619030041 82 0 0.0 1.0 0.00 0.00 0.00 69 1011.9
20240619024538 83 0 0.0 3.0 0.00 0.00 0.00 67 1011.6
20240619023039 83 266 0.0 2.0 0.00 0.00 0.00 66 1011.4
20240619021545 84 224 0.0 2.0 0.00 0.00 0.00 65 1010.9
20240619020038 84 217 1.0 3.0 0.00 0.00 0.00 64 1010.7
20240619014539 85 257 0.0 2.0 0.00 0.00 0.00 66 1010.6
20240619013036 85 0 0.0 4.0 0.00 0.00 0.00 63 1010.4
20240619011551 86 235 0.0 3.0 0.00 0.00 0.00 60 1010.4
20240619010044 86 262 0.0 3.0 0.00 0.00 0.00 63 1010.2
20240619004552 87 124 1.0 3.0 0.00 0.00 0.00 65 1010.2
20240619003043 88 259 1.0 2.0 0.00 0.00 0.00 62 1009.9
20240619001542 89 0 1.0 2.0 0.00 0.00 0.00 58 1009.7
20240619000054 89 229 0.0 3.0 0.00 0.00 0.00 57 1009.5
20240618234542 89 176 0.0 2.0 0.00 0.00 0.00 60 1009.4
20240618233040 90 245 1.0 3.0 0.00 0.00 0.00 60 1009.3
20240618231543 90 201 1.0 3.0 0.00 0.00 0.00 60 1009.3
20240618230047 89 250 1.0 2.0 0.00 0.00 0.00 59 1009.2
20240618224538 89 257 0.0 3.0 0.00 0.00 0.00 60 1009.2
20240618223043 89 235 0.0 2.0 0.00 0.00 0.00 62 1009.2
20240618221540 90 131 1.0 4.0 0.00 0.00 0.00 61 1009.2
20240618220043 92 236 1.0 3.0 0.00 0.00 0.00 57 1009.1
20240618214541 94 0 1.0 3.0 0.00 0.00 0.00 54 1008.7
20240618213054 94 257 0.0 3.0 0.00 0.00 0.00 52 1008.9
20240618211549 93 235 0.0 2.0 0.00 0.00 0.00 53 1008.9
20240618210055 93 133 0.0 2.0 0.00 0.00 0.00 53 1009.0
20240618204541 93 75 0.0 2.0 0.00 0.00 0.00 54 1009.2
20240618203039 93 240 1.0 3.0 0.00 0.00 0.00 53 1009.4
20240618201545 92 205 0.0 5.0 0.00 0.00 0.00 55 1009.5
20240618200049 91 243 0.0 3.0 0.00 0.00 0.00 54 1009.4
20240618194545 92 250 0.0 3.0 0.00 0.00 0.00 55 1009.6
20240618193037 91 242 0.0 2.0 0.00 0.00 0.00 57 1009.9